Location: Maiden
(35.5760°N, 81.2120°W)
Time: 10:50:39
(UTC-04:00)

Courier 1B - Visible Passes

Search period start: 04 August 2020 00:00
Search period end: 14 August 2020 00:00
Orbit: 962 x 1209 km, 28.3° (Epoch: 04 August)

Date Brightness Start Highest point End Pass type
(mag) Time Alt. Az. Time Alt. Az. Time Alt. Az.
04 Aug 8.3 21:49:53 10° SW 21:55:45 30° SSE 21:57:39 26° SE visible
04 Aug 9.4 23:42:59 10° WSW 23:44:34 17° WSW 23:44:34 17° WSW visible
05 Aug 8.7 20:56:30 10° SSW 21:02:08 26° SSE 21:07:31 10° ESE visible
05 Aug 8.1 22:49:16 10° WSW 22:54:27 39° SSW 22:54:27 39° SSW visible
06 Aug 8.1 21:55:35 10° SW 22:01:59 39° S 22:04:13 31° SE visible
06 Aug 9.3 23:49:13 10° WSW 23:51:07 19° WSW 23:51:07 19° WSW visible
07 Aug 8.3 21:01:57 10° SW 21:08:18 35° SSE 21:13:53 12° ESE visible
07 Aug 8.1 22:55:25 10° WSW 23:00:48 42° SSW 23:00:48 42° SSW visible
08 Aug 7.9 22:01:36 10° WSW 22:08:14 45° S 22:10:22 35° SE visible
08 Aug 9.5 23:55:36 10° WSW 23:57:16 17° WSW 23:57:16 17° WSW visible
09 Aug 8.1 21:07:48 10° WSW 21:14:32 43° S 21:19:55 15° ESE visible
09 Aug 8.3 23:01:42 10° WSW 23:06:48 39° SW 23:06:48 39° SW visible
10 Aug 8.0 22:07:47 10° WSW 22:14:32 47° S 22:16:17 39° SE visible
11 Aug 9.7 00:02:09 10° WSW 00:03:09 14° WSW 00:03:09 14° WSW visible
11 Aug 8.1 21:13:53 10° WSW 21:20:49 47° S 21:25:44 18° ESE visible
11 Aug 8.6 23:08:06 10° WSW 23:12:37 32° SW 23:12:37 32° SW visible
12 Aug 8.1 22:14:06 10° WSW 22:20:47 42° S 22:22:03 39° SSE visible
13 Aug 8.2 21:20:07 10° WSW 21:27:04 46° S 21:31:28 21° SE visible
13 Aug 9.1 23:14:44 10° WSW 23:18:21 24° SW 23:18:21 24° SW visible
